Date String (YYYY-MM-DD hh:mm:ss) UTC,Instrument flags,absolute air pressure of the measurement (hPa),sample flow rate (lpm),inlet stack bypass flow (lpm),air temperature of the measurement (°C),ambient temperature measured by the external sensor (°C),aerosol sample conditioner tube jacket temperature (°C),OPC LED temperature (°C),internal box temperature (°C),relative humidity of the measurement (%),span deviation,mass concentration of particles derived from Lorenz-Mie calculation of OPC scattering (μg/m³),mass concentration of particles derived from Lorenz-Mie calculation of OPC scattering (μg/m³),mass concentration of particles derived from Lorenz-Mie calculation of OPC scattering (μg/m³)
DateTimeUTC,F1_M11,P_M11,Q1_M11,Q2_M11,T1_M11,T2_M11,T3_M11,T4_M11,T5_M11,U1_M11,ZSPAN_M11,X0_M11,X2_M11,X1_M11
2023-08-21 06:00:00,SystemResetWarning,0834.5,5.01,000.00,027.8,024.8,000.0,036.3,029.3,23.0,0001.8,0019.76,0008.54,0007.32
2023-08-21 06:01:00,SystemResetWarning,0834.3,5.00,000.00,027.8,025.2,000.0,036.3,029.4,23.1,0001.9,0020.11,0008.57,0007.33
2023-08-21 06:02:00,SystemResetWarning,0834.4,4.99,000.00,027.9,025.6,000.0,036.3,029.5,22.9,0001.8,0020.01,0008.58,0007.33
2023-08-21 06:03:00,SystemResetWarning,0834.3,5.00,000.00,027.9,025.9,000.0,036.4,029.6,22.7,0001.6,0019.99,0008.56,0007.30
2023-08-21 06:04:00,SystemResetWarning,0834.3,5.01,000.00,027.9,026.2,000.0,036.4,029.7,23.0,0001.1,0020.34,0008.55,0007.27
2023-08-21 06:05:00,SystemResetWarning,0834.3,4.99,000.00,028.0,026.4,000.0,036.4,029.7,22.6,0001.4,0019.75,0008.51,0007.24
2023-08-21 06:06:00,SystemResetWarning,0834.4,4.99,000.00,028.0,026.6,000.0,036.4,029.8,22.0,0001.6,0018.87,0008.45,0007.24
2023-08-21 06:07:00,SystemResetWarning,0834.3,5.00,000.00,028.1,026.8,000.0,036.4,029.9,21.8,0001.4,0017.98,0008.41,0007.24
2023-08-21 06:08:00,SystemResetWarning,0834.4,5.01,000.00,028.1,027.0,000.0,036.5,029.9,21.6,0001.4,0017.78,0008.44,0007.26
2023-08-21 06:09:00,SystemResetWarning,0834.3,5.01,000.00,028.2,027.1,000.0,036.5,030.0,21.8,0001.2,0017.79,0008.49,0007.28
2023-08-21 06:10:00,SystemResetWarning,0834.3,4.99,000.00,028.2,027.2,000.0,036.5,030.0,21.5,0001.0,0016.96,0008.50,0007.31
2023-08-21 06:11:00,SystemResetWarning,0834.3,4.99,000.00,028.2,026.5,000.0,036.5,029.9,21.4,0001.1,0015.99,0008.47,0007.34
2023-08-21 06:12:00,SystemResetWarning,0834.3,5.00,000.00,028.2,025.0,000.0,036.4,029.6,21.3,0001.2,0015.64,0008.49,0007.35
2023-08-21 06:13:00,SystemResetWarning,0834.6,5.00,000.00,028.1,024.5,000.0,036.3,029.5,21.2,0001.2,0015.82,0008.53,0007.36
2023-08-21 06:14:00,SystemResetWarning,0834.5,5.01,000.00,028.0,024.7,000.0,036.4,029.4,21.0,0001.5,0016.34,0008.55,0007.38
2023-08-21 06:15:00,SystemResetWarning,0834.6,5.01,000.00,028.0,025.0,000.0,036.4,029.4,20.8,0001.6,0015.58,0008.52,0007.41
2023-08-21 06:16:00,SystemResetWarning,0834.5,5.00,000.00,028.0,025.4,000.0,036.4,029.5,20.9,0001.5,0015.73,0008.56,0007.44
2023-08-21 06:17:00,SystemResetWarning,0834.4,5.00,000.00,028.0,025.8,000.0,036.4,029.7,20.5,0001.5,0016.15,0008.56,0007.41
2023-08-21 06:18:00,SystemResetWarning,0834.4,4.99,000.00,028.0,026.1,000.0,036.5,029.7,20.7,0001.8,0016.10,0008.58,0007.38
2023-08-21 06:19:00,SystemResetWarning,0834.4,5.00,000.00,028.1,026.3,000.0,036.5,029.8,20.7,0002.0,0016.17,0008.56,0007.36
2023-08-21 06:20:00,SystemResetWarning,0834.4,5.00,000.00,028.1,026.6,000.0,036.5,029.9,20.5,0002.2,0015.76,0008.45,0007.30
2023-08-21 06:21:00,SystemResetWarning,0834.4,5.00,000.00,028.2,026.8,000.0,036.5,029.9,20.2,0002.3,0015.36,0008.38,0007.24
2023-08-21 06:22:00,SystemResetWarning,0834.3,5.00,000.00,028.2,026.9,000.0,036.6,030.0,20.5,0002.5,0015.46,0008.36,0007.18
2023-08-21 06:23:00,SystemResetWarning,0834.3,4.99,000.00,028.2,027.1,000.0,036.6,030.0,20.6,0002.5,0016.62,0008.26,0007.12
2023-08-21 06:24:00,SystemResetWarning,0834.3,4.99,000.00,028.3,027.2,000.0,036.6,030.1,20.6,0002.4,0016.57,0008.13,0007.09
2023-08-21 06:25:00,SystemResetWarning,0834.5,4.99,000.00,028.3,027.1,000.0,036.6,030.1,20.4,0002.7,0016.37,0008.07,0007.04
2023-08-21 06:26:00,SystemResetWarning,0834.4,4.99,000.00,028.3,025.5,000.0,036.5,029.8,20.2,0003.0,0016.30,0008.13,0007.03
2023-08-21 06:27:00,SystemResetWarning,0834.2,5.00,000.00,028.2,024.0,000.0,036.4,029.5,20.3,0003.0,0016.91,0008.11,0006.99
2023-08-21 06:28:00,SystemResetWarning,0834.2,5.00,000.00,028.1,023.7,000.0,036.4,029.3,19.9,0002.8,0016.59,0008.07,0006.97
2023-08-21 06:29:00,SystemResetWarning,0834.2,5.02,000.00,028.0,023.9,000.0,036.4,029.1,20.4,0002.7,0016.23,0008.05,0006.94
2023-08-21 06:30:00,SystemResetWarning,0834.2,5.00,000.00,027.9,024.4,000.0,036.4,029.2,20.4,0002.5,0016.03,0008.05,0006.92
2023-08-21 06:31:00,SystemResetWarning,0834.2,5.00,000.00,027.9,024.9,000.0,036.4,029.4,20.4,0002.4,0016.01,0008.04,0006.90
2023-08-21 06:32:00,SystemResetWarning,0834.2,5.00,000.00,027.9,025.3,000.0,036.4,029.5,20.6,0002.4,0016.01,0007.99,0006.89
2023-08-21 06:33:00,SystemResetWarning,0834.2,5.00,000.00,027.9,025.7,000.0,036.4,029.6,20.6,0001.9,0015.91,0007.91,0006.87
2023-08-21 06:34:00,SystemResetWarning,0834.2,5.00,000.00,028.0,026.0,000.0,036.4,029.7,20.4,0001.4,0014.68,0007.88,0006.85
2023-08-21 06:35:00,SystemResetWarning,0834.3,5.00,000.00,028.0,026.3,000.0,036.5,029.7,20.2,0001.4,0014.42,0007.90,0006.82
2023-08-21 06:36:00,SystemResetWarning,0834.2,5.01,000.00,028.0,026.5,000.0,036.5,029.8,19.8,0001.3,0014.15,0007.92,0006.81
2023-08-21 06:37:00,SystemResetWarning,0834.3,5.00,000.00,028.1,026.7,000.0,036.5,029.8,19.7,0001.3,0013.95,0007.86,0006.76
2023-08-21 06:38:00,SystemResetWarning,0834.3,4.99,000.00,028.1,026.9,000.0,036.5,029.9,19.9,0001.6,0013.48,0007.82,0006.73
2023-08-21 06:39:00,SystemResetWarning,0834.2,5.01,000.00,028.2,027.0,000.0,036.6,030.0,19.9,0001.9,0013.10,0007.83,0006.71
2023-08-21 06:40:00,SystemResetWarning,0834.4,5.01,000.00,028.2,027.1,000.0,036.6,030.0,20.0,0001.7,0013.53,0007.82,0006.70
2023-08-21 06:41:00,SystemResetWarning,0834.5,5.00,000.00,028.3,027.2,000.0,036.6,030.0,20.1,0001.6,0013.86,0007.75,0006.65
2023-08-21 06:42:00,SystemResetWarning,0834.3,5.00,000.00,028.3,027.1,000.0,036.6,030.1,19.9,0001.5,0014.00,0007.77,0006.64
2023-08-21 06:43:00,SystemResetWarning,0834.5,4.99,000.00,028.3,025.6,000.0,036.5,029.8,19.7,0001.5,0014.17,0007.78,0006.61
2023-08-21 06:44:00,SystemResetWarning,0834.5,5.00,000.00,028.2,024.0,000.0,036.4,029.5,19.4,0001.7,0014.61,0007.81,0006.60
2023-08-21 06:45:00,SystemResetWarning,0834.2,5.00,000.00,028.1,023.6,000.0,036.4,029.3,19.6,0001.8,0014.51,0007.78,0006.56
2023-08-21 06:46:00,SystemResetWarning,0834.2,5.01,000.00,028.0,023.9,000.0,036.4,029.2,19.8,0002.1,0014.36,0007.74,0006.53
2023-08-21 06:47:00,SystemResetWarning,0834.2,5.01,000.00,027.9,024.3,000.0,036.4,029.3,19.6,0002.1,0014.48,0007.69,0006.48
2023-08-21 06:48:00,SystemResetWarning,0834.2,4.99,000.00,027.9,024.8,000.0,036.4,029.4,19.8,0001.8,0014.64,0007.66,0006.44
2023-08-21 06:49:00,SystemResetWarning,0834.2,5.00,000.00,027.9,025.2,000.0,036.4,029.5,19.9,0001.6,0014.66,0007.61,0006.40
2023-08-21 06:50:00,SystemResetWarning,0834.2,5.01,000.00,027.9,025.6,000.0,036.4,029.5,20.1,0001.4,0014.88,0007.51,0006.35
2023-08-21 06:51:00,SystemResetWarning,0834.2,4.99,000.00,027.9,025.9,000.0,036.4,029.6,19.7,0001.5,0015.43,0007.45,0006.30
2023-08-21 06:52:00,SystemResetWarning,0834.2,5.00,000.00,028.0,026.2,000.0,036.4,029.7,19.0,0001.6,0015.31,0007.46,0006.29
2023-08-21 06:53:00,SystemResetWarning,0834.2,5.00,000.00,028.0,026.4,000.0,036.5,029.7,19.6,0001.7,0016.18,0007.42,0006.27
2023-08-21 06:54:00,SystemResetWarning,0834.2,5.00,000.00,028.0,026.6,000.0,036.5,029.8,19.3,0001.8,0016.29,0007.39,0006.25
2023-08-21 06:55:00,SystemResetWarning,0834.2,4.99,000.00,028.1,026.8,000.0,036.5,029.8,19.2,0001.8,0016.04,0007.35,0006.22
2023-08-21 06:56:00,SystemResetWarning,0834.2,4.99,000.00,028.1,026.9,000.0,036.5,029.9,18.9,0001.7,0016.87,0007.36,0006.19
2023-08-21 06:57:00,SystemResetWarning,0834.2,5.00,000.00,028.2,027.1,000.0,036.6,030.0,18.9,0001.1,0017.48,0007.34,0006.17
2023-08-21 06:58:00,SystemResetWarning,0834.2,5.01,000.00,028.2,027.2,000.0,036.6,030.0,18.7,0001.4,0017.49,0007.32,0006.14
2023-08-21 06:59:00,SystemResetWarning,0834.2,5.01,000.00,028.3,027.3,000.0,036.6,030.1,18.3,0001.1,0017.34,0007.28,0006.12
